Brandy Bar — WDF7323 — position and weather

sailwx.info

Track history (hours):
 
Tides and Currents Weather Stations Pressure Air Temp Water Temp Dewpoint Dewpoint Depression Visibility Wind Speed Wind Dir Waves Ship Positions

Brandy Bar

More information available from US FCC via Universal Licensing System and Coast Guard Vessel Documentation Center.

Last reported at 2013-Aug-26 19:41 UTC. Time now 2014-Sep-21 02:05 UTC.
Position N 37°46' W 122°14'.
Warning: this ship's position is years out of date!

Type: Towing. MMSI: 367483310.

Date/timePositionNaut miles runAvg speedWind from/ knotsBaromVisibWave heightAir tempDewpointWater temp
2013-Aug-26 19:41N 37°46' W 122°14'0 0.3
2013-Aug-26 19:32N 37°46' W 122°14'2 2.3
2013-Aug-26 18:33N 37°47' W 122°17'2 2.5
2013-Aug-26 17:33N 37°48' W 122°20'2 1.9
2013-Aug-26 16:33N 37°48' W 122°22'1 0.5
2013-Aug-26 15:33N 37°48' W 122°23'1 0.0
2013-Aug-25 23:05N 37°48' W 122°24'0 0.0
2013-Aug-24 03:33N 37°48' W 122°23'5 4.6
2013-Aug-24 02:33N 37°48' W 122°17'2 0.2
2013-Aug-23 14:33N 37°47' W 122°15'4 4.2
2013-Aug-23 13:33N 37°48' W 122°20'3 3.3
2013-Aug-23 12:33N 37°50' W 122°23'6 4.8
2013-Aug-23 11:14N 37°56' W 122°28'3 4.7
2013-Aug-23 10:30N 37°59' W 122°26'4 3.8
2013-Aug-23 09:33N 38°01' W 122°22'3 3.2
2013-Aug-23 08:32N 38°02' W 122°19'2 1.9
2013-Aug-23 07:31N 38°03' W 122°17'4 3.9
2013-Aug-23 06:33N 38°03' W 122°12'5 4.5
2013-Aug-23 05:33N 38°03' W 122°06'7 5.7
2013-Aug-23 04:21N 38°03' W 121°57'5 5.5
2013-Aug-23 03:24N 38°02' W 121°51'1 0.0
2013-Aug-22 06:22N 38°03' W 121°51'12 0.9
2013-Aug-21 17:15N 38°11' W 121°40'12 6.8
2013-Aug-21 15:26N 38°02' W 121°50'  
Track history (hours):
 
Tides and Currents Weather Stations Pressure Air Temp Water Temp Dewpoint Dewpoint Depression Visibility Wind Speed Wind Dir Waves Ship Positions

Brandy Bar

More information available from US FCC via Universal Licensing System and Coast Guard Vessel Documentation Center.

Last reported at 2013-Aug-26 19:41 UTC. Time now 2014-Sep-21 02:05 UTC.
Position N 37°46' W 122°14'.
Warning: this ship's position is years out of date!

Type: Towing. MMSI: 367483310.

Date/timePositionNaut miles runAvg speedWind from/ knotsBaromVisibWave heightAir tempDewpointWater temp
2013-Aug-26 19:41N 37°46' W 122°14'0 0.3
2013-Aug-26 19:32N 37°46' W 122°14'2 2.3
2013-Aug-26 18:33N 37°47' W 122°17'2 2.5
2013-Aug-26 17:33N 37°48' W 122°20'2 1.9
2013-Aug-26 16:33N 37°48' W 122°22'1 0.5
2013-Aug-26 15:33N 37°48' W 122°23'1 0.0
2013-Aug-25 23:05N 37°48' W 122°24'0 0.0
2013-Aug-24 03:33N 37°48' W 122°23'5 4.6
2013-Aug-24 02:33N 37°48' W 122°17'2 0.2
2013-Aug-23 14:33N 37°47' W 122°15'4 4.2
2013-Aug-23 13:33N 37°48' W 122°20'3 3.3
2013-Aug-23 12:33N 37°50' W 122°23'6 4.8
2013-Aug-23 11:14N 37°56' W 122°28'3 4.7
2013-Aug-23 10:30N 37°59' W 122°26'4 3.8
2013-Aug-23 09:33N 38°01' W 122°22'3 3.2
2013-Aug-23 08:32N 38°02' W 122°19'2 1.9
2013-Aug-23 07:31N 38°03' W 122°17'4 3.9
2013-Aug-23 06:33N 38°03' W 122°12'5 4.5
2013-Aug-23 05:33N 38°03' W 122°06'7 5.7
2013-Aug-23 04:21N 38°03' W 121°57'5 5.5
2013-Aug-23 03:24N 38°02' W 121°51'1 0.0
2013-Aug-22 06:22N 38°03' W 121°51'12 0.9
2013-Aug-21 17:15N 38°11' W 121°40'12 6.8
2013-Aug-21 15:26N 38°02' W 121°50'  

Dump ship's entire track history